Regional Weather Roundup
Issued by NWS Charleston, SC

Current Version | Previous Version | Graphics & Text | Print | Product List | Glossary On
Versions: 1 2 3 4 5 6 7 8 9 10 11 12 13 14 15 16 17 18 19 20 21 22 23 24 25 26 27 28 29 30 31 32 33 34 35 36 37 38 39 40 41 42 43 44 45 46 47 48 49 50
000
ASUS42 KCHS 250813
RWRCHS

REGIONAL WEATHER ROUNDUP
NATIONAL WEATHER SERVICE CHARLESTON SC
400 AM EDT WED MAY 25 2016

NOTE: "FAIR" INDICATES FEW OR NO CLOUDS BELOW 12,000 FEET WITH NO
SIGNIFICANT WEATHER AND/OR OBSTRUCTIONS TO VISIBILITY.

NOT ALL STATIONS ARE QUALITY CONTROLLED. USE DATA WITH CAUTION...
ESPECIALLY DEWPOINT OBSERVATIONS.

SCZ027-030-031-034>040-042>050-250900-
...SOUTHEAST SOUTH CAROLINA...

CITY           SKY/WX    TMP DP  RH WIND       PRES   REMARKS
N CHARLESTON   PTCLDY    67  62  84 CALM      30.18S
WATERFRONT PRK   N/A     72  68  87 CALM      30.17R
MOUNT PLEASANT FAIR      63  63 100 CALM      30.19S
JOHNS ISLAND   FAIR      66  64  94 CALM      30.19S
PINOPOLIS        N/A     70  64  83 CALM      30.11R
MONCKS CORNER  FAIR      57  55  94 CALM      30.19S
SUMMERVILLE    FAIR      61  61 100 CALM      30.20R
BEAUFORT MCAS  CLOUDY    67  65  93 CALM      30.19R FOG
BEAUFORT ARPT  FAIR      68  64  88 CALM      30.18S
HILTON HEAD IS PTCLDY    68  66  94 CALM      30.19S
WALTERBORO     MOSUNNY   64  64 100 CALM      30.19S
ALLENDALE      FAIR      66  64  94 CALM      30.18S

...SOUTHERN MIDLANDS AND PEE DEE...

CITY           SKY/WX    TMP DP  RH WIND       PRES   REMARKS
GEORGETOWN     FAIR      57  55  94 CALM      30.20S
KINGSTREE      FAIR      61  59  94 CALM      30.19S
ORANGEBURG     CLEAR     63  62  97 SW3       30.18S FOG
BARNWELL       FAIR      64  64 100 CALM      30.19S
AIKEN          FAIR      64  61  88 S7        30.22S
MANNING        FAIR      63  61  94 CALM      30.19R
COLUMBIA       CLEAR     63  58  83 W3        30.17S
SUMTER         CLEAR     62  60  93 SW3       30.16S
FLORENCE       CLEAR     64  60  87 CALM      30.19R
MYRTLE BEACH   CLEAR     64  54  68 CALM      30.21S
N MYRTLE BEACH CLEAR     62  61  96 CALM      30.18S

$$

GAZ063-065-086>088-099>101-113>116-118-119-134>141-150-250900-
...SOUTHEAST GEORGIA...

CITY           SKY/WX    TMP DP  RH WIND       PRES   REMARKS
SAVANNAH ARPT  CLEAR     68  66  93 CALM      30.19R
HUNTER AAF     CLEAR     67  67 100 CALM      30.16S
FORT STEWART   PTCLDY    65  62  90 CALM      30.16S
STATESBORO     PTCLDY    64  64  99 CALM      30.19S
SYLVANIA       MOSUNNY   67  65  94 CALM      30.19S
CLAXTON        FAIR      64  64  99 CALM      30.18S

...CSRA...CENTRAL AND FAR SOUTHEAST GEORGIA...

CITY           SKY/WX    TMP DP  RH WIND       PRES   REMARKS
THOMSON        CLEAR     60  60  99 CALM      30.22S
AUGUSTA-BUSH   CLEAR     59  59 100 E3        30.17S FOG
AUGUSTA-DANIEL CLEAR     70  59  68 S3        30.18S
SWAINSBORO     FAIR      64  61  88 CALM      30.19S
VIDALIA        CLEAR     64  61  88 CALM      30.18F
EASTMAN        FAIR      59  59 100 CALM      30.19F
HAZLEHURST     PTSUNNY   69  62  77 CALM      30.17S
ALMA           PTCLDY    61  60  97 CALM      30.18S
WAYCROSS       CLEAR     67  63  85 CALM      30.18S
JESUP          FAIR      55  55 100 CALM      30.18F
BAXLEY         FAIR      63  63 100 CALM      30.18S
BRUNSWICK      FOG       68  64  88 CALM      30.19S VSB 1
SAINT SIMONS   PTCLDY    72  67  84 SW3       30.18R

$$

SCZ027-028-034-036>038-045-046-048>050-GAZ119-141-250900-
...LAKE AND SUPPLEMENTAL COASTAL OBSERVATIONS...

STATION/POSITION TIME  TEMP    WIND        PRES    WAVE   SWELL
                       AIR SEA DIR/SP/G            HT/PER HT/PER/DIR
                 (UTC) (F)     (DEG/KT/KT) (MB)    (FT/S) (FT/S/D)
WINYAH BAY       0645   63     310/  2     1021.0
LAKE MURRAY      0700   70     220/  8/ 11 1021.3R
ACE BASIN NERRS  NOT AVBL
FORT PULASKI     0700   74 76  210/  3/  5 1022.1F
SAPELO ISLAND    0700   71     180/  3     1022.0S

$$

ANZ835-935-AMZ111-154-330-350-352-354-370-450-454-472-250900-
...C-MAN AND BUOY OBSERVATIONS...

STATION/POSITION TIME  TEMP    WIND        PRES    WAVE   SWELL
                       AIR SEA DIR/SP/G            HT/PER HT/PER/DIR
                 (UTC) (F)     (DEG/KT/KT) (MB)    (FT/S) (FT/S/D)
BUOY 41004       0750   76 75  210/  4/  6 1021.9S   2/ 9   2/ 9
BUOY 41008       0750   76 75  200/  8/ 10 1021.7S   2/ 9   2/ 90/ 9
FOLLY BEACH CMAN 0800   73     220/  5/  7 1022.3S
CAPERS NEARSHORE 0708   74 74  210/  6/ 10 1021.9R
FRIPP NEARSHORE  0708   75 75  220/  4/  6 1021.6R


STATION/POSITION TIME  TEMP    WIND        PRES    WAVE   SWELL
                       AIR SEA DIR/SP/G            HT/PER HT/PER/DIR
                 (UTC) (F)     (DEG/KT/KT) (MB)    (FT/S) (FT/S/D)
5E ST. MARYS GA  0721      77                N/A     3/ 9
FRYING PAN BUOY  0700   76 76  240/ 12/ 14 1021.8F
BUOY 41025       0750   69 69  250/ 10/ 10 1021.4R   3/ 5   3/220/ 5
CAPE LOOKOUT NC  0800   69     260/  6/  7 1021.6R
BUOY 41002       0750   73 78   30/  6/  8 1022.4S   4/ 9   3/ 60/ 9
BUOY 41010       0720   76 78   80/  6/  8 1022.0S
ST AUGUSTINE FL  0800   78 78  150/ 12/ 14 1022.6S


$$




USA.gov is the U.S. government's official web portal to all federal, state and local government web resources and services.